Regional Weather Roundup
Issued by NWS Kansas City/Pleasant Hill, MO

Home | Current Version | Previous Version | Text Only | Print | Product List | Glossary On
Versions: 1 2 3 4 5 6 7 8 9 10 11 12 13 14 15 16 17 18 19 20 21 22 23 24 25 26
000
ASUS43 KEAX 132110
RWREAX

WEATHER ROUNDUP FOR EASTERN KANSAS AND NORTHWEST MISSOURI
NATIONAL WEATHER SERVICE KANSAS CITY/PLEASANT HILL MO
300 PM CST WED DEC 13 2017

KSZ040-057-103>105-MOZ028-029-037-043-132200-
...KANSAS CITY METROPOLITAN AREA...

CITY           SKY/WX    TMP DP  RH WIND       PRES   REMARKS
K.C. INTL      SUNNY     58  27  30 NW16G26   29.76R
K.C. DOWNTOWN  SUNNY     59  27  29 NW20G31   29.74R
LEES SUMMIT    SUNNY     58  28  32 NW23G32   29.75R
OLATHE - IXD   SUNNY     59  28  30 NW18G25   29.78R
OLATHE - OJC   SUNNY     57  27  31 NW25G35   29.77R
LAWRENCE       SUNNY     60  26  27 NW25G33   29.78R

$$

MOZ001>008-011>017-020>025-030>033-038>040-044>046-053-054-132200-
...NORTHERN AND CENTRAL MISSOURI...

CITY           SKY/WX    TMP DP  RH WIND       PRES   REMARKS
ST. JOSEPH     SUNNY     56  30  37 NW24G35   29.76R
MOSBY          CLEAR     57  27  30 NW18G31   29.74R
WARRENSBURG    SUNNY     59  28  31 NW20G29   29.73R
WHITEMAN AFB   SUNNY     59  29  32 NW18G30   29.68R
CLINTON        SUNNY     61  28  29 NW16G24   29.74S
SEDALIA        SUNNY     60  32  34 NW20G25   29.72R
WARSAW         NOT AVBL
CHILLICOTHE      N/A     56  28  34 NW16G32   29.70R
KIRKSVILLE     SUNNY     50  36  58 NW22G33   29.65R

$$

MOZ041-047>049-056>058-063>065-088>090-097-132200-
...EASTERN AND SOUTHERN MISSOURI...

CITY           SKY/WX    TMP DP  RH WIND       PRES   REMARKS
ST. LOUIS INTL MOSUNNY   57  30  35 W26G33    29.57R
SPIRIT OF STL  MOSUNNY   59  30  33 W22G36    29.58R
COLUMBIA       SUNNY     58  31  35 NW24G36   29.66R
JEFFERSON CITY SUNNY     59  31  34 W21G35    29.66R
ROLLA          SUNNY     58  29  33 W17G29    29.66S
OSAGE BEACH    SUNNY     59  29  31 W8        29.70R
SPRINGFIELD    SUNNY     58  26  29 W14G22    29.76S
BRANSON        MOSUNNY   57  25  28 W17G23    29.77F
JOPLIN         SUNNY     61  28  28 W13       29.80S
WEST PLAINS    SUNNY     60  23  24 W13G24    29.72R

$$

IAZ060-094-KSZ022-034>040-054-083-096-NEZ052-066-093-132200-
...KANSAS...SOUTHEAST NEBRASKA AND IOWA...

CITY           SKY/WX    TMP DP  RH WIND       PRES   REMARKS
TOPEKA         SUNNY     59  27  29 NW23G30   29.79R
MANHATTAN      SUNNY     61  25  25 NW14G24   29.84S
EMPORIA        SUNNY     60  24  25 NW23G32   29.82R
CHANUTE        SUNNY     64  26  23 NW12G25   29.82R
WICHITA        MOSUNNY   65  22  19 N18G26    29.86S
OMAHA          MOSUNNY   49  29  46 N22G35    29.79R
LINCOLN        SUNNY     53  28  38 NW23G32   29.85R
FALLS CITY     SUNNY     55  28  35 NW22      29.78R
LAMONI         SUNNY     49  29  46 NW25G33   29.70R
DES MOINES     CLOUDY    39  30  70 NW30G39   29.70R WCI  27

$$





USA.gov is the U.S. government's official web portal to all federal, state and local government web resources and services.